Change History for TBR/UserApp/Fault_Recorder

Version Date Author Comment
43 May 5, 2009, 12:31:47 PM Logiclab
42 Jan 20, 2009, 8:13:31 AM JoelSherrill
41 Jan 19, 2009, 4:37:08 PM Logiclab
40 Jan 19, 2009, 4:19:30 PM Logiclab
39 Jan 19, 2009, 4:12:56 PM Logiclab
38 Jan 16, 2009, 5:24:40 PM Logiclab
37 Nov 21, 2007, 2:34:59 PM Logiclabsrl Digital Fault Recorder? moved to …
36 Nov 16, 2007, 5:29:52 PM Logiclabsrl /* Software Feature */
35 Nov 16, 2007, 1:37:39 PM Logiclabsrl
34 Nov 16, 2007, 1:31:47 PM Logiclabsrl /* Signal relay */
33 Nov 16, 2007, 1:31:08 PM Logiclabsrl /* Communication */
32 Nov 16, 2007, 1:29:26 PM Logiclabsrl /* Digital inputs */
31 Nov 16, 2007, 1:28:48 PM Logiclabsrl /* Voltage inputs */
30 Nov 16, 2007, 1:28:38 PM Logiclabsrl /* Current inputs */
29 Nov 16, 2007, 1:28:22 PM Logiclabsrl /* Current inputs */
28 Nov 16, 2007, 1:28:05 PM Logiclabsrl /* Current inputs */
27 Nov 16, 2007, 1:27:23 PM Logiclabsrl /* Dimensions */
26 Jan 26, 2007, 5:21:24 PM Logiclabsrl
25 Jan 26, 2007, 5:18:33 PM Logiclabsrl /* RTEMS related pages */
24 Jan 26, 2007, 5:18:16 PM Logiclabsrl
23 Jan 26, 2007, 5:17:30 PM Logiclabsrl
22 Jan 26, 2007, 5:15:56 PM Logiclabsrl
21 Jan 26, 2007, 5:15:32 PM Logiclabsrl
20 Jan 26, 2007, 5:15:14 PM Logiclabsrl
19 Jan 26, 2007, 5:14:32 PM Logiclabsrl
18 Jan 26, 2007, 5:13:35 PM Logiclabsrl
17 Jan 26, 2007, 5:08:04 PM Logiclabsrl
16 Jan 26, 2007, 5:07:28 PM Logiclabsrl /* Tecnical informations */
15 Jan 26, 2007, 5:07:13 PM Logiclabsrl
14 Jan 26, 2007, 5:02:40 PM Logiclabsrl /* Firmware Architecture */
13 Jan 26, 2007, 5:02:02 PM Logiclabsrl
12 Jan 26, 2007, 4:59:07 PM Logiclabsrl
11 Jan 26, 2007, 4:45:07 PM Logiclabsrl
10 Jan 26, 2007, 4:43:47 PM Logiclabsrl /* Techinical information */
9 Jan 26, 2007, 4:38:23 PM Logiclabsrl
8 Jan 26, 2007, 4:35:44 PM Logiclabsrl
7 Jan 26, 2007, 4:33:45 PM Logiclabsrl
6 Jan 26, 2007, 4:29:09 PM Logiclabsrl
5 Jan 26, 2007, 4:27:11 PM Logiclabsrl /* Dimensions */
4 Jan 26, 2007, 4:26:48 PM Logiclabsrl /* Dimensions */
3 Jan 26, 2007, 4:26:09 PM Logiclabsrl /* Power supply */
2 Jan 26, 2007, 4:25:15 PM Logiclabsrl
1 Jan 26, 2007, 4:24:02 PM Logiclabsrl New page: Power supply Power Supply (Vaux): 110V DC ± 20% (more …